Rio De Janeiro, Brazil

2:46 AM BRST on February 09, 2016 (GMT -0200)
Rio De Janeiro

Weather History for 83755 - July, 2013

Change the Weather History Date:

Thursday, July 18, 2013

  Actual Average Record
Temperature  
Mean Temperature 78 °F -  
Max Temperature 87 °F 75 °F - ()
Min Temperature 68 °F 65 °F - ()
Cooling Degree Days 12    
Growing Degree Days 28 (Base 50)    
Moisture  
Dew Point 72 °F    
Average Humidity 88    
Maximum Humidity 100    
Minimum Humidity 62    
Precipitation  
Precipitation 0.00 in - - ()
Sea Level Pressure  
Sea Level Pressure 29.92 in    
Wind  
Wind Speed 5 mph ()    
Max Wind Speed 8 mph    
Max Gust Speed -    
Visibility 1.6 miles    
Events Fog    
T = Trace of Precipitation, MM = Missing Value Source: Averaged Metar Reports

Daily Weather History Graph

Daily Weather History Graph

Search for Another Location

Airport or City:

Trip Planner

Search our weather history database for the weather conditions in past years. The results will help you decide how hot, cold, wet, or windy it might be!

Date:

Astronomy

Jul. 18, 2013 Rise Set
Actual Time 6:32 AM BRT 5:25 PM BRT
Civil Twilight 6:08 AM BRT 5:49 PM BRT
Nautical Twilight 5:40 AM BRT 6:17 PM BRT
Astronomical Twilight 5:13 AM BRT 6:44 PM BRT
Moon 1:23 PM BRT (7/18) 1:59 AM BRT (7/18)
Length of Visible Light 11h 41m
Length of Day
10h 53m
Waxing Gibbous, 77% of the Moon is Illuminated
Jul 18
Waxing Gibbous
Jul 22
Full
Jul 29
Last Quarter
Aug 6
New
Aug 14
First Quarter

Hourly Weather History & Observations

Time (BRT) Temp. Heat Index Dew Point Humidity Pressure Visibility Wind Dir Wind Speed Gust Speed Precip Events Conditions
5:25 AM 68.0 °F - 68.0 °F 100% 29.95 in 0.1 mi North 4.6 mph - N/A Fog Fog
6:00 AM 68.0 °F - 68.0 °F 100% 29.95 in 0.1 mi NNW 5.8 mph - N/A Fog Fog
7:00 AM 68.0 °F - 68.0 °F 100% 29.95 in 0.1 mi North 5.8 mph - N/A Fog Fog
8:00 AM 68.0 °F - 68.0 °F 100% 29.98 in 0.2 mi North 5.8 mph - N/A Fog Fog
9:00 AM 69.8 °F - 69.8 °F 100% 29.98 in 0.6 mi North 5.8 mph - N/A Fog Fog
10:00 AM 73.4 °F - 73.4 °F 100% 29.98 in 3.7 mi NNW 6.9 mph - N/A   Partly Cloudy
11:00 AM 77.0 °F - 75.2 °F 94% 29.95 in 6.2 mi North 5.8 mph - N/A   Partly Cloudy
12:00 PM 80.6 °F 85.4 °F 73.4 °F 79% 29.92 in - NNE 5.8 mph - N/A   Clear
1:00 PM 84.2 °F 92.3 °F 75.2 °F 74% 29.89 in - NE 6.9 mph - N/A   Clear
2:00 PM 86.0 °F 93.4 °F 73.4 °F 66% 29.86 in - North 3.5 mph - N/A   Clear
3:00 PM 87.8 °F 95.6 °F 73.4 °F 62% 29.83 in - NNE 4.6 mph - N/A   Clear
4:00 PM 86.0 °F 91.8 °F 71.6 °F 62% 29.83 in - ENE 2.3 mph - N/A   Clear
5:00 PM 82.4 °F 89.5 °F 75.2 °F 79% 29.86 in - South 6.9 mph - N/A   Clear
6:00 PM 77.0 °F - 73.4 °F 89% 29.89 in - South 6.9 mph - N/A   Clear
7:00 PM 77.0 °F - 69.8 °F 78% 29.89 in - SSW 8.1 mph - N/A   Clear
8:00 PM 77.0 °F - 75.2 °F 94% 29.92 in - SE 6.9 mph - N/A   Clear
9:00 PM 73.4 °F - 73.4 °F 100% 29.92 in - ESE 3.5 mph - N/A   Clear
10:00 PM 71.6 °F - 71.6 °F 100% 29.95 in - Calm Calm - N/A   Clear
11:00 PM 75.2 °F - 71.6 °F 89% 29.95 in - NNW 4.6 mph - N/A   Clear